Weather History for Algona, IA

Change the Weather History Date:

Monday, February 4, 2013

  Actual Average Record
Temperature  
Mean Temperature 18 °F -  
Max Temperature 23 °F 27 °F 62 °F (2005)
Min Temperature 12 °F 11 °F -11 °F (2002)
Degree Days  
Heating Degree Days 48    
Moisture  
Dew Point 13 °F    
Average Humidity 79    
Maximum Humidity 93    
Minimum Humidity 63    
Precipitation  
Precipitation 0.00 in - - ()
Sea Level Pressure  
Sea Level Pressure 29.90 in    
Wind  
Wind Speed 12 mph (NNE)    
Max Wind Speed 20 mph    
Max Gust Speed 28 mph    
Visibility 10 miles    
Events Rain , Snow    
Averages and records for this station are not official NWS values.
T = Trace of Precipitation, MM = Missing Value Source: NWS Daily Summary

Daily Weather History Graph

Daily Weather History Graph

Search for Another Location

Airport:

Trip Planner

Search our weather history database for the weather conditions in past years. The results will help you decide how hot, cold, wet, or windy it might be!

Date:

Astronomy

Feb. 04, 2013 Rise Set
Actual Time 7:28 AM CST 5:34 PM CST
Civil Twilight 6:58 AM CST 6:03 PM CST
Nautical Twilight 6:24 AM CST 6:37 PM CST
Astronomical Twilight 5:51 AM CST 7:10 PM CST
Moon 2:07 AM CST (2/4) 11:56 AM CST (2/4)
Length of Visible Light 11h 05m
Length of Day
10h 05m
Last Quarter, 37% of the Moon is Illuminated
Feb 4
Last Quarter
Feb 10
New
Feb 17
First Quarter
Feb 25
Full
Mar 4
Last Quarter

Hourly Weather History & Observations

Time (CST) Temp. Windchill Dew Point Humidity Pressure Visibility Wind Dir Wind Speed Gust Speed Precip Events Conditions
12:15 AM 21.2 °F 10.1 °F 17.6 °F 86% 29.79 in 10.0 mi NNE 10.4 mph - N/A   Partly Cloudy
12:35 AM 19.4 °F 7.9 °F 17.6 °F 93% 29.78 in 10.0 mi NE 10.4 mph - N/A   Clear
12:55 AM 19.4 °F 6.0 °F 15.8 °F 86% 29.79 in 10.0 mi NNE 13.8 mph - N/A   Scattered Clouds
1:15 AM 19.4 °F 4.5 °F 17.6 °F 93% 29.80 in 10.0 mi NNE 17.3 mph - N/A   Overcast
1:35 AM 21.2 °F 7.3 °F 17.6 °F 86% 29.80 in 10.0 mi NNE 16.1 mph - N/A   Overcast
1:55 AM 19.4 °F 4.5 °F 17.6 °F 93% 29.80 in 10.0 mi NNE 17.3 mph - N/A   Overcast
2:15 AM 19.4 °F 4.1 °F 17.6 °F 93% 29.81 in 10.0 mi NE 18.4 mph - N/A   Overcast
2:35 AM 19.4 °F 3.6 °F 17.6 °F 93% 29.82 in 10.0 mi NNE 19.6 mph - N/A Snow Light Snow
2:55 AM 19.4 °F 5.5 °F 15.8 °F 86% 29.83 in 10.0 mi NNE 15.0 mph - N/A   Overcast
3:15 AM 19.4 °F 5.0 °F 15.8 °F 86% 29.83 in 10.0 mi NNE 16.1 mph 23.0 mph N/A   Overcast
4:55 AM 15.8 °F -0.6 °F 12.2 °F 86% 29.87 in 10.0 mi NNE 18.4 mph - N/A   Overcast
5:15 AM 14.0 °F -2.0 °F 12.2 °F 93% 29.88 in 10.0 mi NNE 16.1 mph 23.0 mph N/A Snow Light Snow
5:35 AM 14.0 °F -3.4 °F 10.4 °F 86% 29.89 in 10.0 mi North 19.6 mph 26.5 mph N/A   Light Freezing Rain
5:55 AM 14.0 °F -3.4 °F 10.4 °F 86% 29.90 in 10.0 mi NNE 19.6 mph 27.6 mph N/A   Light Freezing Rain
6:15 AM 14.0 °F -2.0 °F 10.4 °F 86% 29.91 in 10.0 mi NNE 16.1 mph 21.9 mph N/A Snow Light Snow
6:35 AM 14.0 °F -1.4 °F 10.4 °F 86% 29.92 in 10.0 mi NNE 15.0 mph 21.9 mph N/A   Light Freezing Rain
6:55 AM 14.0 °F 0.5 °F 10.4 °F 86% 29.93 in 10.0 mi North 11.5 mph 20.7 mph N/A Rain Light Freezing Rain
7:15 AM 14.0 °F -0.8 °F 8.6 °F 79% 29.94 in 10.0 mi North 13.8 mph 19.6 mph N/A Rain Light Freezing Rain
7:35 AM 14.0 °F -0.8 °F 8.6 °F 79% 29.94 in 10.0 mi NNE 13.8 mph - N/A   Overcast
7:55 AM 14.0 °F -2.0 °F 8.6 °F 79% 29.95 in 10.0 mi NNE 16.1 mph - N/A   Overcast
8:15 AM 12.2 °F -3.1 °F 8.6 °F 85% 29.95 in 8.0 mi NNE 13.8 mph 20.7 mph N/A Rain Light Freezing Rain
8:35 AM 12.2 °F -2.5 °F 8.6 °F 85% 29.97 in 5.0 mi North 12.7 mph 18.4 mph N/A Snow Light Snow
8:55 AM 12.2 °F -2.5 °F 6.8 °F 79% 29.95 in 7.0 mi NNE 12.7 mph - N/A Rain Light Freezing Rain
9:15 AM 12.2 °F -1.8 °F 6.8 °F 79% 29.96 in 5.0 mi North 11.5 mph - N/A Snow Light Snow
9:35 AM 12.2 °F -0.2 °F 8.6 °F 85% 29.98 in 9.0 mi North 9.2 mph 16.1 mph N/A   Overcast
9:55 AM 14.0 °F 1.2 °F 8.6 °F 79% 29.99 in 8.0 mi North 10.4 mph - N/A Rain Light Freezing Rain
10:15 AM 14.0 °F 2.0 °F 8.6 °F 79% 30.00 in 9.0 mi North 9.2 mph - N/A Rain Light Freezing Rain
10:35 AM 15.8 °F 4.2 °F 8.6 °F 73% 30.01 in 9.0 mi North 9.2 mph - N/A   Mostly Cloudy
10:55 AM 15.8 °F 3.4 °F 8.6 °F 73% 30.01 in 10.0 mi NNE 10.4 mph 18.4 mph N/A   Scattered Clouds
11:15 AM 15.8 °F 3.4 °F 10.4 °F 79% 30.00 in 10.0 mi NNE 10.4 mph - N/A   Scattered Clouds
11:35 AM 17.6 °F 5.7 °F 8.6 °F 68% 30.00 in 10.0 mi NNE 10.4 mph - N/A   Scattered Clouds
11:55 AM 17.6 °F 8.2 °F 10.4 °F 73% 29.98 in 10.0 mi ENE 6.9 mph - N/A   Scattered Clouds
12:15 PM 17.6 °F 9.3 °F 10.4 °F 73% 29.97 in 10.0 mi Variable 5.8 mph - N/A   Partly Cloudy
12:35 PM 19.4 °F 11.5 °F 10.4 °F 68% 29.95 in 10.0 mi NE 5.8 mph - N/A   Clear
12:55 PM 19.4 °F 10.4 °F 10.4 °F 68% 29.95 in 10.0 mi NNE 6.9 mph - N/A   Clear
1:15 PM 19.4 °F 10.4 °F 12.2 °F 74% 29.96 in 10.0 mi NNE 6.9 mph - N/A   Clear
1:35 PM 21.2 °F 14.9 °F 10.4 °F 63% 29.97 in 10.0 mi North 4.6 mph 11.5 mph N/A   Clear
1:55 PM 21.2 °F 14.9 °F 10.4 °F 63% 29.97 in 10.0 mi NNW 4.6 mph - N/A   Clear
2:15 PM 21.2 °F 14.9 °F 12.2 °F 68% 29.96 in 10.0 mi Variable 4.6 mph - N/A   Clear
2:35 PM 21.2 °F 13.6 °F 10.4 °F 63% 29.96 in 10.0 mi North 5.8 mph - N/A   Clear
2:55 PM 21.2 °F 14.9 °F 12.2 °F 68% 29.96 in 10.0 mi North 4.6 mph - N/A   Clear
3:15 PM 21.2 °F 16.4 °F 12.2 °F 68% 29.95 in 10.0 mi NE 3.5 mph - N/A   Clear
3:35 PM 21.2 °F 14.9 °F 12.2 °F 68% 29.94 in 10.0 mi NNE 4.6 mph - N/A   Clear
3:55 PM 21.2 °F 13.6 °F 12.2 °F 68% 29.95 in 10.0 mi North 5.8 mph - N/A   Clear
4:15 PM 21.2 °F 14.9 °F 12.2 °F 68% 29.95 in 10.0 mi North 4.6 mph - N/A   Clear
4:35 PM 21.2 °F - 12.2 °F 68% 29.94 in 10.0 mi Calm Calm - N/A   Scattered Clouds
4:55 PM 21.2 °F - 12.2 °F 68% 29.92 in 10.0 mi Calm Calm - N/A   Partly Cloudy
5:15 PM 21.2 °F - 12.2 °F 68% 29.91 in 10.0 mi Calm Calm - N/A   Clear
5:35 PM 21.2 °F 14.9 °F 14.0 °F 74% 29.92 in 10.0 mi SSE 4.6 mph - N/A   Clear
5:55 PM 21.2 °F 16.4 °F 14.0 °F 74% 29.92 in 10.0 mi SE 3.5 mph - N/A   Partly Cloudy
6:15 PM 21.2 °F 14.9 °F 14.0 °F 74% 29.91 in 10.0 mi South 4.6 mph - N/A   Mostly Cloudy
6:35 PM 21.2 °F 11.7 °F 15.8 °F 80% 29.89 in 10.0 mi South 8.1 mph - N/A Snow Light Snow
6:55 PM 21.2 °F 12.6 °F 15.8 °F 80% 29.88 in 10.0 mi SSE 6.9 mph - N/A   Mostly Cloudy
7:15 PM 21.2 °F 10.9 °F 15.8 °F 80% 29.87 in 10.0 mi South 9.2 mph - N/A Snow Light Snow
7:35 PM 21.2 °F 10.1 °F 15.8 °F 80% 29.86 in 10.0 mi South 10.4 mph - N/A   Partly Cloudy
7:55 PM 21.2 °F 10.1 °F 15.8 °F 80% 29.85 in 10.0 mi South 10.4 mph - N/A Snow Light Snow
8:15 PM 21.2 °F 9.5 °F 15.8 °F 80% 29.85 in 10.0 mi South 11.5 mph - N/A   Overcast
8:35 PM 21.2 °F 9.5 °F 17.6 °F 86% 29.85 in 10.0 mi South 11.5 mph - N/A   Overcast
8:55 PM 21.2 °F 10.1 °F 17.6 °F 86% 29.85 in 10.0 mi South 10.4 mph - N/A   Overcast
9:15 PM 23.0 °F 10.6 °F 17.6 °F 80% 29.84 in 10.0 mi South 13.8 mph - N/A   Overcast
9:35 PM 23.0 °F 11.1 °F 17.6 °F 80% 29.85 in 10.0 mi SSW 12.7 mph - N/A   Overcast
9:55 PM 23.0 °F 10.1 °F 17.6 °F 80% 29.84 in 10.0 mi SSW 15.0 mph - N/A   Overcast
10:15 PM 23.0 °F 10.1 °F 17.6 °F 80% 29.83 in 10.0 mi SSW 15.0 mph - N/A   Overcast
10:35 PM 23.0 °F 11.1 °F 17.6 °F 80% 29.83 in 10.0 mi South 12.7 mph - N/A   Overcast
10:55 PM 23.0 °F 10.6 °F 19.4 °F 86% 29.83 in 10.0 mi SSW 13.8 mph 19.6 mph N/A   Overcast
11:15 PM 23.0 °F 11.7 °F 19.4 °F 86% 29.84 in 10.0 mi SSW 11.5 mph - N/A   Mostly Cloudy
11:35 PM 23.0 °F 10.1 °F 19.4 °F 86% 29.82 in 10.0 mi South 15.0 mph - N/A   Overcast
11:55 PM 23.0 °F 11.1 °F 19.4 °F 86% 29.82 in 10.0 mi South 12.7 mph - N/A   Overcast